Location: Ellerstadt
(49.4644°N, 8.2615°E)
Time: 01:37:37
(UTC+00:00)

ISS - Pass Details

Date: 21 May 2021
Orbit: 417 x 422 km, 51.6° (Epoch: 15 June)

Event Time Altitude Azimuth Distance (km) Brightness Sun altitude
Rises 21:43:36 0° 284° (WNW) 2,368 0.6 -16.7°
Reaches altitude 10° 21:45:43 10° 287° (WNW) 1,504 -0.4 -16.9°
Maximum altitude 21:49:04 65° 10° (N) 466 -3.4 -17.1°
Enters shadow 21:51:09 21° 89° (E) 1,002 -2.1 -17.2°
